Bellaire, MI

6:50 AM EDT on June 25, 2017 (GMT -0400)
Antrim County

Weather History for KACB - January, 2013

Change the Weather History Date:

Monday, January 14, 2013

  Actual Average (KCVX) Record (KCVX)
Temperature  
Mean Temperature 22 °F -  
Max Temperature 26 °F 26 °F 32 °F (2008)
Min Temperature 19 °F 17 °F 5 °F (2009)
Degree Days  
Heating Degree Days 42    
Moisture  
Dew Point 15 °F    
Average Humidity 72    
Maximum Humidity 87    
Minimum Humidity 56    
Precipitation  
Precipitation 0.00 in - - ()
Sea Level Pressure  
Sea Level Pressure 30.25 in    
Wind  
Wind Speed 8 mph (SW)    
Max Wind Speed 13 mph    
Max Gust Speed 22 mph    
Visibility 8 miles    
Events Snow    
Averages and records for this station are not official NWS values.
T = Trace of Precipitation, MM = Missing Value Source: NWS Daily Summary

Daily Weather History Graph

Daily Weather History Graph

Search for Another Location

Airport or City:

Trip Planner

Search our weather history database for the weather conditions in past years. The results will help you decide how hot, cold, wet, or windy it might be!

Date:

Astronomy

Jan. 14, 2013 Rise Set
Actual Time 8:15 AM EST 5:24 PM EST
Civil Twilight 7:43 AM EST 5:57 PM EST
Nautical Twilight 7:06 AM EST 6:33 PM EST
Astronomical Twilight 6:31 AM EST 7:08 PM EST
Moon 9:38 AM EST (1/14) 9:21 PM EST (1/14)
Length of Visible Light 10h 14m
Length of Day
9h 08m
Waxing Crescent, 11% of the Moon is Illuminated
Jan 14
Waxing Crescent
Jan 18
First Quarter
Jan 26
Full
Feb 3
Last Quarter
Feb 10
New

Hourly Weather History & Observations

Time (EST) Temp. Windchill Dew Point Humidity Pressure Visibility Wind Dir Wind Speed Gust Speed Precip Events Conditions
12:15 AM 26.4 °F 16.0 °F 19.2 °F 74% 29.98 in 10.0 mi WSW 11.5 mph - N/A   Overcast
12:34 AM 26.2 °F 17.8 °F 19.2 °F 75% 29.99 in 10.0 mi WSW 8.1 mph 16.1 mph N/A   Overcast
12:54 AM 25.7 °F 15.7 °F 19.0 °F 76% 30.00 in 10.0 mi SW 10.4 mph 20.7 mph N/A   Overcast
1:15 AM 25.5 °F 16.2 °F 19.2 °F 77% 30.00 in 10.0 mi WSW 9.2 mph 18.4 mph N/A   Overcast
1:34 AM 25.3 °F 14.1 °F 19.2 °F 78% 30.01 in 4.0 mi WSW 12.7 mph 19.6 mph N/A   Overcast
1:54 AM 25.2 °F 15.7 °F 19.6 °F 79% 30.02 in 5.0 mi WSW 9.2 mph 18.4 mph N/A   Overcast
2:15 AM 24.3 °F 13.3 °F 19.2 °F 81% 30.03 in 2.5 mi WSW 11.5 mph 18.4 mph N/A   Overcast
2:34 AM 24.1 °F 13.1 °F 18.5 °F 79% 30.04 in 7.0 mi WSW 11.5 mph 21.9 mph N/A   Overcast
2:54 AM 24.1 °F 12.5 °F 19.0 °F 81% 30.06 in 4.0 mi SW 12.7 mph 17.3 mph N/A   Overcast
3:15 AM 23.9 °F 15.0 °F 19.9 °F 85% 30.07 in 1.5 mi West 8.1 mph - N/A   Overcast
3:34 AM 23.7 °F 14.7 °F 20.3 °F 87% 30.08 in 2.0 mi WSW 8.1 mph - N/A   Overcast
3:55 AM 23.9 °F 15.0 °F 20.1 °F 85% 30.09 in 10.0 mi West 8.1 mph - N/A   Overcast
4:34 AM 23.9 °F 16.8 °F 16.0 °F 72% 30.11 in 10.0 mi West 5.8 mph - N/A   Overcast
5:15 AM 22.8 °F 13.6 °F 18.5 °F 83% 30.13 in 1.8 mi West 8.1 mph - N/A   Overcast
5:34 AM 23.0 °F 14.7 °F 18.5 °F 83% 30.14 in 4.0 mi West 6.9 mph 16.1 mph N/A   Overcast
5:55 AM 22.8 °F 14.5 °F 16.7 °F 77% 30.15 in 5.0 mi West 6.9 mph 17.3 mph N/A   Overcast
6:14 AM 22.6 °F 14.3 °F 15.8 °F 75% 30.17 in 5.0 mi West 6.9 mph - N/A   Overcast
6:34 AM 22.6 °F 15.3 °F 14.2 °F 70% 30.18 in 10.0 mi West 5.8 mph 9.2 mph N/A   Overcast
6:55 AM 22.5 °F 13.2 °F 13.3 °F 68% 30.20 in 10.0 mi WSW 8.1 mph - N/A   Overcast
7:14 AM 22.1 °F 14.7 °F 12.7 °F 67% 30.21 in 7.0 mi WSW 5.8 mph - N/A   Overcast
7:35 AM 22.1 °F 14.7 °F 13.1 °F 68% 30.22 in 7.0 mi WSW 5.8 mph - N/A   Overcast
7:55 AM 22.1 °F 15.9 °F 12.9 °F 68% 30.24 in 10.0 mi WSW 4.6 mph - N/A   Overcast
8:14 AM 22.1 °F 13.7 °F 13.1 °F 68% 30.26 in 10.0 mi WSW 6.9 mph - N/A   Overcast
8:35 AM 22.5 °F 12.4 °F 13.1 °F 67% 30.28 in 10.0 mi WSW 9.2 mph 16.1 mph N/A   Overcast
8:55 AM 22.6 °F 13.4 °F 13.1 °F 67% 30.29 in 7.0 mi West 8.1 mph - N/A   Overcast
9:14 AM 22.6 °F 14.3 °F 13.8 °F 69% 30.30 in 7.0 mi WSW 6.9 mph - N/A   Overcast
9:35 AM 22.1 °F 14.7 °F 14.9 °F 74% 30.31 in 4.0 mi WSW 5.8 mph - N/A   Overcast
9:54 AM 22.5 °F 16.3 °F 14.4 °F 71% 30.32 in 10.0 mi WSW 4.6 mph - N/A   Overcast
10:15 AM 22.1 °F 13.7 °F 15.4 °F 76% 30.32 in 4.0 mi WSW 6.9 mph - N/A   Overcast
10:35 AM 22.1 °F 12.0 °F 14.7 °F 73% 30.33 in 5.0 mi SW 9.2 mph - N/A   Overcast
10:54 AM 22.5 °F 17.8 °F 14.7 °F 72% 30.33 in 7.0 mi West 3.5 mph - N/A   Overcast
11:15 AM 22.5 °F 14.1 °F 14.0 °F 70% 30.33 in 10.0 mi WSW 6.9 mph - N/A   Overcast
11:35 AM 22.6 °F 15.3 °F 14.7 °F 72% 30.33 in 7.0 mi WSW 5.8 mph - N/A   Overcast
11:54 AM 22.6 °F 15.3 °F 14.5 °F 71% 30.33 in 7.0 mi SW 5.8 mph - N/A   Overcast
12:15 PM 22.6 °F 14.3 °F 13.6 °F 68% 30.32 in 10.0 mi SW 6.9 mph - N/A   Overcast
12:35 PM 23.2 °F 15.0 °F 13.1 °F 65% 30.31 in 10.0 mi SW 6.9 mph - N/A   Overcast
12:54 PM 23.4 °F 16.2 °F 13.5 °F 66% 30.30 in 10.0 mi SW 5.8 mph - N/A   Overcast
1:15 PM 23.4 °F 15.2 °F 14.0 °F 67% 30.31 in 10.0 mi WSW 6.9 mph 18.4 mph N/A   Overcast
1:35 PM 23.4 °F 16.2 °F 14.0 °F 67% 30.31 in 10.0 mi WSW 5.8 mph - N/A   Overcast
1:54 PM 23.5 °F 19.1 °F 14.7 °F 69% 30.31 in 7.0 mi SW 3.5 mph - N/A   Overcast
2:15 PM 23.9 °F 16.8 °F 14.0 °F 66% 30.31 in 10.0 mi WSW 5.8 mph - N/A   Overcast
2:35 PM 23.9 °F 15.0 °F 13.6 °F 65% 30.32 in 10.0 mi WSW 8.1 mph - N/A   Overcast
2:55 PM 24.6 °F - 13.8 °F 64% 30.32 in 10.0 mi Calm Calm - N/A   Overcast
3:15 PM 25.7 °F 17.1 °F 13.3 °F 59% 30.31 in 10.0 mi SW 8.1 mph - N/A   Mostly Cloudy
3:34 PM 26.1 °F 19.4 °F 12.9 °F 58% 30.32 in 10.0 mi West 5.8 mph - N/A   Mostly Cloudy
3:55 PM 24.8 °F 17.9 °F 12.7 °F 60% 30.33 in 10.0 mi WSW 5.8 mph - N/A   Mostly Cloudy
4:15 PM 25.5 °F 18.7 °F 11.8 °F 56% 30.33 in 10.0 mi SW 5.8 mph - N/A   Mostly Cloudy
4:35 PM 24.8 °F 17.9 °F 11.8 °F 58% 30.34 in 10.0 mi SW 5.8 mph - N/A   Scattered Clouds
5:15 PM 23.7 °F 19.3 °F 12.2 °F 61% 30.34 in 10.0 mi SSW 3.5 mph - N/A   Scattered Clouds
5:35 PM 23.4 °F 18.9 °F 13.5 °F 66% 30.34 in 10.0 mi South 3.5 mph - N/A   Mostly Cloudy
5:54 PM 22.5 °F 16.3 °F 14.0 °F 70% 30.34 in 10.0 mi South 4.6 mph - N/A   Scattered Clouds
6:15 PM 21.9 °F 12.5 °F 14.0 °F 72% 30.33 in 10.0 mi South 8.1 mph - N/A   Clear
6:35 PM 21.2 °F 10.9 °F 14.5 °F 75% 30.33 in 10.0 mi South 9.2 mph - N/A   Clear
6:54 PM 21.0 °F 10.6 °F 14.7 °F 77% 30.33 in 10.0 mi South 9.2 mph - N/A   Clear
7:15 PM 20.5 °F 11.7 °F 14.7 °F 78% 30.33 in 10.0 mi South 6.9 mph - N/A   Clear
7:35 PM 20.3 °F 12.5 °F 14.9 °F 80% 30.33 in 10.0 mi South 5.8 mph - N/A   Clear
7:54 PM 19.9 °F 11.1 °F 14.7 °F 80% 30.33 in 10.0 mi South 6.9 mph - N/A   Scattered Clouds
8:15 PM 20.7 °F 11.0 °F 14.9 °F 78% 30.31 in 10.0 mi SSE 8.1 mph - N/A   Mostly Cloudy
8:35 PM 21.0 °F 13.4 °F 15.3 °F 78% 30.31 in 10.0 mi South 5.8 mph - N/A   Overcast
8:55 PM 22.1 °F 14.7 °F 15.3 °F 75% 30.31 in 10.0 mi SSW 5.8 mph - N/A   Overcast
9:15 PM 22.1 °F 12.8 °F 15.1 °F 74% 30.31 in 10.0 mi SSW 8.1 mph - N/A   Overcast
9:34 PM 22.1 °F 14.7 °F 15.4 °F 76% 30.31 in 10.0 mi SSW 5.8 mph - N/A   Overcast
9:55 PM 22.1 °F 13.7 °F 15.6 °F 76% 30.31 in 10.0 mi SSW 6.9 mph - N/A   Overcast
10:15 PM 22.1 °F 13.7 °F 15.8 °F 77% 30.31 in 10.0 mi SSW 6.9 mph - N/A   Overcast
10:35 PM 22.3 °F 13.0 °F 16.3 °F 78% 30.30 in 10.0 mi South 8.1 mph - N/A Snow Light Snow
10:54 PM 22.6 °F 18.0 °F 16.7 °F 78% 30.30 in 10.0 mi WSW 3.5 mph - N/A Snow Light Snow
11:14 PM 22.5 °F 15.1 °F 16.7 °F 79% 30.31 in 10.0 mi SSW 5.8 mph - N/A Snow Light Snow
11:35 PM 24.6 °F 15.8 °F 14.7 °F 66% 30.31 in 10.0 mi WSW 8.1 mph - N/A   Overcast
11:54 PM 24.6 °F 20.3 °F 14.7 °F 66% 30.31 in 10.0 mi WSW 3.5 mph - N/A   Overcast